Tekamah, NE

4:44 PM CST on January 21, 2018 (GMT -0600)
Tekamah

Weather History for KTQE - January, 2012

Change the Weather History Date:

Sunday, January 22, 2012

  Actual Average Record
Temperature  
Mean Temperature 32 °F -  
Max Temperature 41 °F 35 °F 58 °F (1992)
Min Temperature 24 °F 14 °F -11 °F (1966)
Degree Days  
Heating Degree Days 32    
Moisture  
Dew Point 26 °F    
Average Humidity 81    
Maximum Humidity 89    
Minimum Humidity 72    
Precipitation  
Precipitation 0.00 in - - ()
Sea Level Pressure  
Sea Level Pressure 29.51 in    
Wind  
Wind Speed 16 mph (SW)    
Max Wind Speed 22 mph    
Max Gust Speed 28 mph    
Visibility 2 miles    
Events Fog , Snow    
Averages and records for this station are not official NWS values.
T = Trace of Precipitation, MM = Missing Value Source: NWS Daily Summary

Daily Weather History Graph

Daily Weather History Graph

Search for Another Location

Airport or City:

Trip Planner

Search our weather history database for the weather conditions in past years. The results will help you decide how hot, cold, wet, or windy it might be!

Date:

Astronomy

Jan. 22, 2012 Rise Set
Actual Time 7:45 AM CST 5:26 PM CST
Civil Twilight 7:15 AM CST 5:57 PM CST
Nautical Twilight 6:41 AM CST 6:31 PM CST
Astronomical Twilight 6:08 AM CST 7:04 PM CST
Moon 7:03 AM CST (1/22) 5:10 PM CST (1/22)
Length of Visible Light 10h 41m
Length of Day
9h 41m
Waning Crescent, 0% of the Moon is Illuminated
Jan 22
Waning Crescent
Jan 23
New
Jan 30
First Quarter
Feb 7
Full
Feb 14
Last Quarter

Hourly Weather History & Observations

Time (CST) Temp. Windchill Dew Point Humidity Pressure Visibility Wind Dir Wind Speed Gust Speed Precip Events Conditions
12:19 AM 24.8 °F 10.0 °F 17.6 °F 74% 29.62 in 4.0 mi SSE 21.9 mph - N/A   Haze
12:46 AM 24.8 °F 11.1 °F 19.4 °F 80% 29.59 in 4.0 mi SSE 18.4 mph - N/A   Haze
12:54 AM 25.0 °F 10.6 °F 19.0 °F 78% 29.62 in 4.0 mi SSE 20.7 mph - N/A   Haze
1:21 AM 24.8 °F 10.3 °F 19.4 °F 80% 29.57 in 4.0 mi SSE 20.7 mph 27.6 mph N/A   Haze
1:54 AM 25.0 °F 10.9 °F 19.9 °F 81% 29.59 in 4.0 mi SSE 19.6 mph - N/A   Haze
2:09 AM 26.6 °F 13.4 °F 19.4 °F 74% 29.56 in 4.0 mi SSE 18.4 mph 25.3 mph N/A   Haze
2:54 AM 27.0 °F 17.3 °F 21.0 °F 78% 29.57 in 4.0 mi SSE 10.4 mph - N/A   Haze
3:43 AM 28.4 °F 17.5 °F 21.2 °F 74% 29.52 in 4.0 mi SSE 13.8 mph - N/A   Haze
3:54 AM 28.0 °F 17.5 °F 21.9 °F 78% 29.53 in 4.0 mi SSE 12.7 mph - N/A   Haze
4:54 AM 28.9 °F 18.2 °F 23.0 °F 78% 29.50 in 4.0 mi SE 13.8 mph - N/A   Haze
5:54 AM 28.9 °F 16.9 °F 24.1 °F 82% 29.48 in 4.0 mi SE 17.3 mph - N/A   Haze
6:54 AM 30.0 °F 19.5 °F 25.0 °F 82% 29.48 in 3.0 mi SE 13.8 mph - N/A   Haze
7:49 AM 32.0 °F 22.1 °F 26.6 °F 80% 29.43 in 3.0 mi SE 13.8 mph - N/A   Haze
7:54 AM 32.0 °F 22.1 °F 27.0 °F 82% 29.45 in 3.0 mi SE 13.8 mph - N/A   Haze
8:07 AM 32.0 °F 22.1 °F 28.4 °F 87% 29.44 in 2.5 mi SE 13.8 mph - N/A   Overcast
8:45 AM 32.0 °F 23.6 °F 28.4 °F 87% 29.43 in 1.5 mi SE 10.4 mph - N/A   Overcast
8:54 AM 33.1 °F 24.9 °F 28.9 °F 85% 29.45 in 1.2 mi SE 10.4 mph - N/A   Overcast
9:26 AM 33.8 °F 24.8 °F 30.2 °F 87% 29.42 in 1.2 mi SE 12.7 mph - N/A   Overcast
10:54 AM 36.0 °F 28.0 °F 33.1 °F 89% 29.44 in 1.5 mi SE 11.5 mph - N/A   Overcast
11:11 AM 37.4 °F 30.3 °F 33.8 °F 87% 29.42 in 1.8 mi SE 10.4 mph - N/A   Overcast
11:25 AM 39.2 °F 33.0 °F 35.6 °F 87% 29.42 in 2.0 mi SE 9.2 mph - N/A   Overcast
12:42 PM 41.0 °F 37.1 °F 35.6 °F 81% 29.39 in 2.5 mi SE 5.8 mph - N/A   Haze
12:54 PM 41.0 °F 35.8 °F 35.1 °F 79% 29.40 in 2.5 mi SE 8.1 mph - N/A   Haze
1:54 PM 39.9 °F 33.9 °F 34.0 °F 79% 29.42 in 2.5 mi NNW 9.2 mph - N/A   Haze
2:54 PM 41.0 °F 35.8 °F 34.0 °F 76% 29.42 in 2.0 mi North 8.1 mph - N/A   Haze
3:54 PM 39.0 °F 29.9 °F 32.0 °F 76% 29.45 in 2.0 mi NNW 17.3 mph 21.9 mph N/A   Haze
4:04 PM 37.4 °F 28.9 °F 30.2 °F 75% 29.45 in 2.0 mi NNW 13.8 mph - N/A   Haze
4:18 PM 37.4 °F 28.2 °F 30.2 °F 75% 29.46 in 2.5 mi NNW 16.1 mph - N/A   Haze
4:54 PM 36.0 °F 26.3 °F 30.0 °F 79% 29.49 in 2.0 mi NNW 16.1 mph - N/A   Haze
5:02 PM 35.6 °F 26.2 °F 28.4 °F 75% 29.48 in 2.0 mi NNW 15.0 mph - N/A   Haze
5:22 PM 35.6 °F 25.9 °F 28.4 °F 75% 29.49 in 3.0 mi NNW 16.1 mph - N/A   Haze
6:54 PM 33.1 °F 23.0 °F 25.0 °F 72% 29.54 in 4.0 mi NNW 15.0 mph - N/A   Haze
7:34 PM 32.0 °F 20.1 °F 24.8 °F 75% 29.54 in 3.0 mi NW 19.6 mph - N/A   Haze
7:44 PM 32.0 °F 20.5 °F 24.8 °F 75% 29.54 in 3.0 mi NW 18.4 mph 25.3 mph N/A   Haze
7:54 PM 32.0 °F 20.8 °F 25.0 °F 75% 29.56 in 3.0 mi NW 17.3 mph - N/A   Haze
8:36 PM 30.2 °F 18.9 °F 24.8 °F 80% 29.55 in 1.8 mi NW 16.1 mph - 0.00 in Snow Light Snow
8:50 PM 28.4 °F 16.2 °F 24.8 °F 86% 29.55 in 0.8 mi NW 17.3 mph - 0.00 in Snow Light Snow
8:54 PM 28.9 °F 16.9 °F 26.1 °F 89% 29.57 in 0.8 mi NW 17.3 mph - 0.00 in Snow Light Snow
9:31 PM 28.4 °F 16.2 °F 24.8 °F 86% 29.55 in 0.5 mi NW 17.3 mph - 0.00 in Fog , Snow Snow
9:47 PM 28.4 °F 17.0 °F 24.8 °F 86% 29.54 in 0.5 mi NW 15.0 mph - 0.00 in Fog , Snow Snow
9:54 PM 28.0 °F 14.9 °F 25.0 °F 88% 29.56 in 0.8 mi NW 19.6 mph 25.3 mph 0.00 in Snow Light Snow
10:30 PM 28.4 °F 16.6 °F 24.8 °F 86% 29.55 in 0.5 mi NW 16.1 mph - 0.00 in Fog , Snow Snow
11:02 PM 28.4 °F 15.8 °F 24.8 °F 86% 29.55 in 0.8 mi WNW 18.4 mph - 0.00 in Snow Light Snow
11:31 PM 28.4 °F 15.8 °F 24.8 °F 86% 29.56 in 1.2 mi NW 18.4 mph - 0.00 in Snow Light Snow
11:46 PM 28.4 °F 16.6 °F 24.8 °F 86% 29.56 in 2.0 mi NW 16.1 mph - 0.00 in Snow Light Snow
11:54 PM 28.0 °F 15.7 °F 24.1 °F 85% 29.57 in 2.5 mi NW 17.3 mph - 0.00 in   Overcast